Home > Weather > Ajmān > Past weeks

Flag for United Arab Emirates Past Weather in Ajmān, Ajman, United Arab Emirates — Yesterday and Last 2 Weeks

Now
99 °F

Sunny.


Feels Like: 104 °F
Forecast: 90 / 100 °F
Wind: 8 mph from Northwest

Location: Sharjah International Airport

Current Time: Jun 26, 2016 at 7:34:37 PM

Latest Report: Jun 26, 2016 at 7:00 PM


Visibility: 10 mi

Pressure: 29.47 "Hg

Humidity: 37%

Dew Point: 68 °F

Location of AjmānLocation

Past Weather in Ajmān — Graph

°F

Ajmān Temperature Yesterday

Maximum temperature yesterday: 111 °F (at 12:00 PM)
Minimum temperature yesterday: 84 °F (at 4:00 AM)
Average temperature yesterday: 96 °F

High & Low Weather Summary for the Past Weeks

 TemperatureHumidityPressure
High113 °F (Jun 22, 11:00 AM)84% (Jun 15, 6:00 AM)29.65 "Hg (Jun 15, 6:00 AM)
Low77 °F (Jun 22, 3:00 AM)11% (Jun 16, 12:00 PM)29.42 "Hg (Jun 16, 4:00 PM)
Average94 °F46%29.52 "Hg
* Reported Jun 11 6:00 PM — Jun 26 6:00 PM, Ajmān, Weather by CustomWeather, © 2016

Note: Actual official high and low records may vary slightly from our data, if they occured in-between our weather recording intervals... More about our weather records

Advertising

Ajmān Weather History for the Previous 24 Hours

Scroll right to see more
 ConditionsComfort  
Time TempWeatherWind HumidityBarometerVisibility
6:00 PM
Sun, Jun 26
100 °FSunny.12 mph35%29.47 "Hg10 mi
5:00 PM102 °FSunny.13 mph35%29.47 "Hg10 mi
4:00 PM102 °FSunny.14 mph37%29.47 "Hg10 mi
3:00 PM104 °FSunny.16 mph40%29.47 "Hg10 mi
2:00 PM104 °FSunny.15 mph40%29.47 "Hg10 mi
1:00 PM108 °FSunny.14 mph30%29.50 "Hg10 mi
12:00 PM113 °FSunny.2 mph13%29.50 "Hg10 mi
11:00 AM109 °FSunny.3 mph16%29.53 "Hg10 mi
10:00 AM106 °FSunny.7 mph22%29.56 "Hg10 mi
9:00 AM102 °FSunny.9 mph27%29.56 "Hg10 mi
8:00 AM95 °FSunny.8 mph32%29.56 "Hg10 mi
7:00 AM90 °FSunny.5 mph46%29.53 "Hg10 mi
6:00 AM84 °FSunny.6 mph62%29.53 "Hg10 mi
5:00 AM86 °FClear.6 mph66%29.53 "Hg10 mi
4:00 AM84 °FClear.3 mph70%29.50 "Hg10 mi
3:00 AM86 °FClear.2 mph62%29.50 "Hg10 mi
2:00 AM86 °FClear.3 mph66%29.50 "Hg5 mi
1:00 AM86 °FClear.3 mph62%29.53 "Hg10 mi
12:00 AM88 °FClear.5 mph52%29.53 "Hg10 mi
11:00 PM
Sat, Jun 25
88 °FClear.3 mph52%29.53 "Hg10 mi
10:00 PM93 °FClear.2 mph49%29.50 "Hg10 mi
9:00 PM93 °FClear.3 mph44%29.50 "Hg5 mi
8:00 PM95 °FClear.5 mph39%29.50 "Hg5 mi
7:00 PM99 °FClear.8 mph35%29.50 "Hg5 mi
Weather by CustomWeather, © 2016

See weather overviewHow to use our weather pages